• In Austria
  • List of Countries
  • For 7 days
  • Water Temperature
  • Satellite Maps
  • Weather Map
  • News
  • Weather Widgets
  • user-avatar
    Login

    Hourly Weather Kiustendil

    Today, 25 May, Friday

    Time Temperature Precipitation Wind Pressure Humidity
    00:00 +7°C° 0 mm 1 mps 624 mmHg 88%
    01:00 +7°C° 0 mm 1 mps 624 mmHg 88%
    02:00 +6°C° 0 mm 1 mps 624 mmHg 88%
    03:00 +6°C° 0 mm 1 mps 623 mmHg 88%
    04:00 +6°C° 0 mm 1 mps 623 mmHg 87%
    05:00 +8°C° 0 mm 1 mps 624 mmHg 81%
    06:00 +10°C° 0 mm 1 mps 625 mmHg 74%
    07:00 +12°C° 0 mm 2 mps 626 mmHg 66%
    08:00 +14°C° 0 mm 2 mps 627 mmHg 60%
    09:00 +15°C° 0 mm 2 mps 627 mmHg 54%
    10:00 +17°C° 0 mm 3 mps 628 mmHg 47%
    11:00 +17°C° 0 mm 3 mps 628 mmHg 46%
    12:00 +18°C° 0 mm 3 mps 628 mmHg 44%
    13:00 +18°C° 0 mm 3 mps 628 mmHg 42%
    14:00 +18°C° 0.1 mm 3 mps 628 mmHg 44%
    15:00 +18°C° 0.1 mm 3 mps 628 mmHg 46%
    16:00 +18°C° 0.1 mm 3 mps 628 mmHg 48%
    17:00 +16°C° 0.1 mm 2 mps 627 mmHg 55%
    18:00 +13°C° 0.1 mm 2 mps 627 mmHg 63%
    19:00 +10°C° 0.1 mm 2 mps 626 mmHg 70%
    20:00 +9°C° 0 mm 2 mps 626 mmHg 73%
    21:00 +8°C° 0 mm 2 mps 626 mmHg 77%
    22:00 +8°C° 0 mm 1 mps 626 mmHg 81%
    23:00 +8°C° 0 mm 1 mps 626 mmHg 82%

    Tomorrow, 26 May, Saturday

    Time Temperature Precipitation Wind Pressure Humidity
    00:00 +7°C° 0 mm 1 mps 626 mmHg 83%
    01:00 +7°C° 0 mm 1 mps 626 mmHg 84%
    02:00 +7°C° 0 mm 1 mps 626 mmHg 85%
    03:00 +6°C° 0 mm 1 mps 625 mmHg 85%
    04:00 +6°C° 0 mm 1 mps 625 mmHg 85%
    05:00 +8°C° 0 mm 1 mps 626 mmHg 78%
    06:00 +11°C° 0 mm 1 mps 628 mmHg 71%
    07:00 +13°C° 0 mm 2 mps 629 mmHg 64%
    08:00 +14°C° 0 mm 2 mps 629 mmHg 58%
    09:00 +16°C° 0 mm 2 mps 630 mmHg 53%
    10:00 +17°C° 0 mm 3 mps 630 mmHg 47%
    11:00 +18°C° 0 mm 3 mps 630 mmHg 45%
    12:00 +19°C° 0 mm 3 mps 630 mmHg 44%
    13:00 +19°C° 0 mm 3 mps 631 mmHg 42%
    14:00 +19°C° 0 mm 3 mps 630 mmHg 45%
    15:00 +19°C° 0 mm 3 mps 630 mmHg 47%
    16:00 +18°C° 0 mm 4 mps 630 mmHg 49%
    17:00 +16°C° 0 mm 3 mps 629 mmHg 57%
    18:00 +13°C° 0 mm 3 mps 628 mmHg 65%
    19:00 +11°C° 0 mm 3 mps 628 mmHg 73%
    20:00 +10°C° 0 mm 2 mps 628 mmHg 77%
    21:00 +9°C° 0 mm 2 mps 627 mmHg 81%
    22:00 +7°C° 0 mm 2 mps 627 mmHg 85%
    23:00 +7°C° 0 mm 2 mps 627 mmHg 86%

    Day after tomorrow, 27 May, Sunday

    Time Temperature Precipitation Wind Pressure Humidity
    00:00 +7°C° 0 mm 2 mps 627 mmHg 87%
    01:00 +7°C° 0 mm 1 mps 627 mmHg 88%
    02:00 +7°C° 0 mm 1 mps 627 mmHg 88%
    03:00 +7°C° 0 mm 1 mps 627 mmHg 89%
    04:00 +6°C° 0 mm 1 mps 627 mmHg 89%
    05:00 +8°C° 0 mm 2 mps 627 mmHg 83%
    06:00 +10°C° 0 mm 2 mps 628 mmHg 76%
    07:00 +13°C° 0 mm 2 mps 629 mmHg 69%
    08:00 +14°C° 0 mm 2 mps 630 mmHg 63%
    09:00 +16°C° 0 mm 2 mps 630 mmHg 57%
    10:00 +17°C° 0 mm 3 mps 631 mmHg 50%
    11:00 +18°C° 0.1 mm 3 mps 631 mmHg 49%
    12:00 +19°C° 0.1 mm 3 mps 631 mmHg 47%
    13:00 +19°C° 0.1 mm 3 mps 631 mmHg 45%
    14:00 +19°C° 0.1 mm 3 mps 630 mmHg 47%
    15:00 +18°C° 0.1 mm 3 mps 630 mmHg 48%
    16:00 +18°C° 0.1 mm 3 mps 630 mmHg 49%
    17:00 +16°C° 0.1 mm 3 mps 629 mmHg 57%
    18:00 +14°C° 0.1 mm 2 mps 629 mmHg 65%
    19:00 +12°C° 0.1 mm 2 mps 628 mmHg 73%
    20:00 +10°C° 0 mm 2 mps 628 mmHg 78%
    21:00 +8°C° 0 mm 2 mps 628 mmHg 82%
    22:00 +8°C° 0 mm 1 mps 628 mmHg 87%
    23:00 +8°C° 0 mm 1 mps 627 mmHg 88%

    28 May, Monday

    Time Temperature Precipitation Wind Pressure Humidity
    00:00 +8°C° 0 mm 1 mps 627 mmHg 89%
    01:00 +7°C° 0 mm 1 mps 627 mmHg 90%
    02:00 +7°C° 0 mm 1 mps 627 mmHg 91%
    03:00 +7°C° 0 mm 1 mps 627 mmHg 91%
    04:00 +6°C° 0 mm 1 mps 627 mmHg 92%
    05:00 +8°C° 0 mm 1 mps 627 mmHg 85%
    06:00 +10°C° 0 mm 1 mps 628 mmHg 79%
    07:00 +12°C° 0 mm 1 mps 629 mmHg 72%
    08:00 +13°C° 0 mm 2 mps 630 mmHg 65%
    09:00 +15°C° 0 mm 2 mps 630 mmHg 58%
    10:00 +17°C° 0 mm 2 mps 631 mmHg 51%
    11:00 +17°C° 0 mm 2 mps 631 mmHg 49%
    12:00 +18°C° 0 mm 2 mps 631 mmHg 47%
    13:00 +18°C° 0 mm 3 mps 631 mmHg 45%
    14:00 +18°C° 0 mm 3 mps 630 mmHg 46%
    15:00 +18°C° 0 mm 3 mps 630 mmHg 47%
    16:00 +18°C° 0 mm 3 mps 630 mmHg 49%
    17:00 +16°C° 0 mm 3 mps 629 mmHg 56%
    18:00 +12°C° 0 mm 3 mps 629 mmHg 64%
    19:00 +10°C° 0 mm 2 mps 628 mmHg 72%
    20:00 +9°C° 0 mm 2 mps 628 mmHg 77%
    21:00 +8°C° 0 mm 2 mps 627 mmHg 81%
    22:00 +7°C° 0 mm 2 mps 627 mmHg 86%
    23:00 +6°C° 0 mm 2 mps 627 mmHg 87%

    29 May, Tuesday

    Time Temperature Precipitation Wind Pressure Humidity
    00:00 +7°C° 0 mm 1 mps 627 mmHg 88%
    01:00 +6°C° 0 mm 1 mps 627 mmHg 90%
    02:00 +6°C° 0 mm 1 mps 626 mmHg 90%
    03:00 +6°C° 0 mm 1 mps 626 mmHg 90%
    04:00 +5°C° 0 mm 1 mps 626 mmHg 91%
    05:00 +6°C° 0 mm 2 mps 627 mmHg 83%
    06:00 +8°C° 0 mm 2 mps 627 mmHg 75%
    07:00 +10°C° 0 mm 2 mps 628 mmHg 67%
    08:00 +13°C° 0 mm 2 mps 629 mmHg 60%
    09:00 +15°C° 0 mm 2 mps 629 mmHg 54%
    10:00 +16°C° 0 mm 3 mps 629 mmHg 47%
    11:00 +17°C° 0 mm 3 mps 630 mmHg 44%
    12:00 +18°C° 0 mm 3 mps 630 mmHg 42%
    13:00 +19°C° 0 mm 3 mps 630 mmHg 40%
    14:00 +19°C° 0 mm 3 mps 629 mmHg 41%
    15:00 +18°C° 0 mm 3 mps 629 mmHg 42%
    16:00 +18°C° 0 mm 3 mps 629 mmHg 44%
    17:00 +16°C° 0 mm 3 mps 628 mmHg 52%
    18:00 +14°C° 0 mm 2 mps 627 mmHg 60%
    19:00 +12°C° 0 mm 2 mps 626 mmHg 68%
    20:00 +9°C° 0 mm 2 mps 626 mmHg 74%
    21:00 +8°C° 0 mm 2 mps 626 mmHg 79%
    22:00 +7°C° 0 mm 2 mps 626 mmHg 84%
    23:00 +7°C° 0 mm 2 mps 625 mmHg 86%

    30 May, Wednesday

    Time Temperature Precipitation Wind Pressure Humidity
    00:00 +7°C° 0 mm 1 mps 625 mmHg 87%
    01:00 +7°C° 0 mm 1 mps 624 mmHg 89%
    02:00 +6°C° 0 mm 1 mps 624 mmHg 90%
    03:00 +6°C° 0 mm 1 mps 624 mmHg 90%
    04:00 +6°C° 0 mm 1 mps 624 mmHg 91%
    05:00 +7°C° 0 mm 2 mps 625 mmHg 82%
    06:00 +9°C° 0 mm 2 mps 626 mmHg 74%
    07:00 +12°C° 0 mm 2 mps 626 mmHg 65%
    08:00 +13°C° 0 mm 2 mps 627 mmHg 59%
    09:00 +15°C° 0 mm 2 mps 627 mmHg 52%
    10:00 +16°C° 0 mm 3 mps 628 mmHg 46%
    11:00 +17°C° 0 mm 3 mps 627 mmHg 44%
    12:00 +17°C° 0 mm 3 mps 627 mmHg 42%
    13:00 +18°C° 0 mm 3 mps 627 mmHg 39%
    14:00 +17°C° 0 mm 3 mps 627 mmHg 40%
    15:00 +17°C° 0 mm 3 mps 627 mmHg 41%
    16:00 +17°C° 0 mm 3 mps 626 mmHg 42%
    17:00 +14°C° 0 mm 2 mps 626 mmHg 47%
    18:00 +12°C° 0 mm 2 mps 625 mmHg 53%
    19:00 +9°C° 0 mm 2 mps 624 mmHg 59%
    20:00 +8°C° 0 mm 2 mps 624 mmHg 62%
    21:00 +8°C° 0 mm 1 mps 624 mmHg 65%
    22:00 +7°C° 0 mm 1 mps 623 mmHg 68%
    23:00 +6°C° 0 mm 1 mps 623 mmHg 68%
    Show more